Simultaneous Nadir Overpasses (SNOs) Predictions

Prediction of SNOs between AQUA and NPP Satellite Orbit:

Table of predicted SNOs for the next 14.0 days since TLE Epoch: 11/4/2022
Index Date (AQUA) Time (AQUA) Lat,Lon (AQUA) SZA (AQUA ) Date (NPP) Time (NPP) Lat,Lon (NPP) SZA (NPP ) Distance(km) Time Diff (sec)
1 11/05/2022 05:56:15 78.91, -16.17 107.89 11/05/2022 05:55:59 78.90, -16.28 107.92 2.42 16
2 11/05/2022 06:45:32 -79.28, 153.74 72.58 11/05/2022 06:46:34 -79.27, 153.68 72.62 1.38 62
3 11/07/2022 21:22:15 -79.09, -66.60 71.57 11/07/2022 21:22:03 -79.09, -66.49 71.59 2.38 12
4 11/07/2022 22:11:32 79.41, 103.12 108.02 11/07/2022 22:12:38 79.42, 103.26 107.94 2.95 66
5 11/10/2022 12:48:18 79.06,-118.27 109.22 11/10/2022 12:48:12 79.06,-118.27 109.22 0.08 6
6 11/10/2022 13:37:36 -79.38, 51.47 71.21 11/10/2022 13:38:48 -79.39, 51.50 71.27 0.88 72
7 11/13/2022 03:27:58 69.87, -3.31 119.26 11/13/2022 03:26:45 70.17, -5.12 119.72 76.66 73
8 11/13/2022 04:14:20 -79.04,-169.91 70.04 11/13/2022 04:14:21 -79.03,-170.03 70.02 2.77 1
9 11/15/2022 18:51:02 -78.75, -30.70 69.00 11/15/2022 18:49:52 -78.75, -30.72 68.94 0.55 70
10 11/15/2022 19:40:17 79.15, 139.32 110.51 11/15/2022 19:40:25 79.15, 139.35 110.49 0.70 8
11 11/18/2022 10:16:57 78.90, -81.30 111.47 11/18/2022 10:15:55 78.91, -81.19 111.49 2.51 62



Historial Predications of SNOs between AQUA and NPP
